Regional Weather Roundup
Issued by NWS Albany, NY

Home | Current Version | Previous Version | Text Only | Print | Product List | Glossary On
Versions: 1 2 3 4 5 6 7 8 9 10 11 12 13 14 15 16 17 18 19 20 21 22 23 24 25 26 27 28 29 30 31 32 33 34 35 36 37 38 39 40 41 42 43 44 45 46 47 48 49 50
000
ASUS41 KALY 192310
RWRALY

NEW YORK STATE HOURLY WEATHER ROUNDUP
NATIONAL WEATHER SERVICE ALBANY NY
700 PM EDT SUN OCT 19 2014

NOTE: "FAIR" INDICATES FEW OR NO CLOUDS BELOW 12,000 FEET WITH NO
SIGNIFICANT WEATHER AND/OR NO OBSTRUCTIONS TO VISIBILITY.

NYZ032-033-038>043-046>054-057>066-NYZ062>081-200000-
EAST


CITY           SKY/WX    TMP DP  RH WIND       PRES   REMARKS
ALBANY         MOCLDY    44  24  45 NW12G18   30.01R
GLENS FALLS    MOCLDY    42  24  49 NW15G21   30.00R
POUGHKEEPSIE   CLEAR     44  25  47 N8        30.02R
NEWBURGH       PTCLDY    43  28  56 NW9       30.02R
MONTGOMERY     CLEAR     44  26  49 MISG      30.02R
WHITE PLAINS   PTCLDY    46  26  45 NW14      29.98R
ISLIP          PTCLDY    48  29  47 NW14      29.96R
NEW YORK CITY  PTCLDY    50  31  48 NW18G26   30.01R
CENTRAL PARK   CLEAR     49  26  41 MISG      30.04R
$$

NYZ005>009-017-018-044>046-055-056-200000-
CENTRAL


CITY           SKY/WX    TMP DP  RH WIND       PRES   REMARKS
FULTON         CLOUDY    41  31  67 W6        30.05S
SYRACUSE       MOCLDY    42  31  62 W8        30.06R
ROME           CLOUDY    40  30  67 W7        30.07R
ELMIRA         CLEAR     37  30  75 N3        30.05R
BINGHAMTON     CLEAR     37  26  64 N8        30.03R WCI  31
MONTICELLO     MOCLDY    37  25  60 NW14G24   30.01S WCI  29
$$

NYZ026>034-041>043-200000-
NORTH


CITY           SKY/WX    TMP DP  RH WIND       PRES   REMARKS
WATERTOWN      PTCLDY    41  25  53 CALM      30.04R
FORT DRUM      NOT AVBL
MASSENA        CLOUDY    41  27  57 W13G20    30.02R
SARANAC LAKE   FLURRIES  32  23  69 VRB6      29.95R WCI  26
PLATTSBURGH    CLOUDY    41  26  55 VRB6      29.97R
$$

NYZ001>004-010>016-019>021-200000-
WEST


CITY           SKY/WX    TMP DP  RH WIND       PRES   REMARKS
NIAGARA FALLS  MOCLDY    45  33  63 SW13      30.05
BUFFALO        MOCLDY    45  33  63 W8        30.05F
DUNKIRK        MOCLDY    45  36  70 S6        30.07F
JAMESTOWN      PTCLDY    39  30  70 W5        30.07S
WELLSVILLE     CLEAR     38  26  62 W9        30.05R WCI  31
ROCHESTER      PTCLDY    42  30  62 CALM      30.06S
PENN YAN       CLEAR     41  29  62 W3        30.06R
$$

             KEY
       WCI = WIND CHILL INDEX
       VSB = VISIBILITY
       HX  = HEAT INDEX
$$



USA.gov is the U.S. government's official web portal to all federal, state and local government web resources and services.